www.pogodaiklimat.ru

Погода и климат >> Архив погоды >> Боливия >> San Borja


ПОГОДА в San Borja

  • Прогноз погоды в San Borja
  • Монитор погоды в San Borja
  • Климат города

АРХИВ ПОГОДЫ в San Borja

Время (UTC), дата Ветер
(напр.,м/с)
 
Видим.   Явления Облачность Т
(С)
Тd
(С)
f
(%)
Тe
(С)
Тes
(С)
Комфортность P
(гПа)
Po
(гПа)
Тmin
(С)
Tmax
(С)
R
(мм)
R24
(мм)
S
(см)
12 13.11 ЮЗ 2 20 км 6/0
[Ci fib]
+25.8 +21.8 79 +33 +37 очень
душно
1009.6 987.2 +20.3
15 13.11 Ю 2 20 км 4/0
[Ci fib]
+32.2 +23.5 60 +43 +62 опасность
перегрева
1011.6 988.1
18 13.11 СВ 3 50 км 6/4 600 м
[Cu hum Ci fib]
+33.7 +23.2 54 +44 +54 опасность
перегрева
1009.2 986.3
21 13.11 В 2 50 км ясно +33.4 +21.7 50 +41 +46 опасность
перегрева
1006.3 982.8 +34.0
12 14.11 штиль 0 50 км 6/0
[Ci fib]
+26.3 +23.1 83 +35 +41 очень
душно
1009.1 986.2 +21.5
15 14.11 штиль 0 50 км 6/0
[Ci]
+32.4 +23.0 58 +43 +66 опасность
перегрева
1010.0 987.0
18 14.11 СЗ 2 20 км 8/0
[Ci fib]
+33.5 +23.3 55 +44 +60 опасность
перегрева
1012.0 989.9
21 14.11 СЗ 2 20 км 4/0
[Ci fib]
+33.0 +21.8 52 +41 +45 опасность
перегрева
1002.7 980.6 +34.3
12 15.11 СЗ 2 20 км 9/0
[Ci fib]
+26.8 +24.3 86 +37 +41 очень
душно
1007.5 985.3 +22.6
15 15.11 СЗ 4 20 км 6/0
[Ci fib]
+31.4 +24.1 65 +43 +54 опасность
перегрева
1007.7 985.6
18 15.11 СЗ 3 50 км 6/4 600 м
[Cu med, cong Ci fib]
+33.4 +23.5 56 +44 +53 опасность
перегрева
1007.2 984.4
21 15.11 С 2 50 км 8/1 600 м
[Cu med, cong Ci fib]
+32.7 +24.8 63 +46 +49 опасность
перегрева
1005.1 981.5 +33.8
12 16.11 СЗ 5 50 км 8/8 450 м
[Sc diur, vesp]
+26.8 +24.5 87 +38 +38 очень
душно
1008.8 986.0 +25.4
15 16.11 СЗ 5 50 км 5/5 600 м
[Cu med, cong]
+31.4 +25.5 71 +46 +51 опасность
перегрева
1009.3 986.5
18 16.11 С 5 20 км 5/5 600 м
[Cu med, cong]
+33.1 +25.0 63 +47 +52 опасность
перегрева
1004.9 982.9
21 16.11 СЗ 4 20 км 4/1 600 м
[Cu hum Ci fib]
+33.5 +25.8 64 +49 +51 опасность
перегрева
1001.9 979.9 +33.8
12 17.11 С 3 20 км 8/3 500 м
[Sc diur, vesp Ci fib]
+27.3 +24.9 87 +39 +42 очень
душно
1005.4 983.3 +23.8
15 17.11 С 6 8000 м осадки на расстоянии 9/9 500 м
[Cb cap]
+28.8 +24.6 78 +41 +42 опасность
перегрева
1006.2 984.1
18 17.11 СЗ 6 50 км 8/5 600 м
[Cu med, cong Ci fib]
+32.0 +25.0 67 +46 +49 опасность
перегрева
1006.3 982.8
21 17.11 СЗ 5 8000 м осадки на расстоянии 9/6 450 м
[Cb cap Ci fib]
+31.0 +25.0 70 +44 +45 опасность
перегрева
1004.6 981.0 +32.7
12 18.11 С 4 7000 м слабая морось 9/9 360 м
[Sc]
+24.8 +23.7 94 +34 +34 очень
душно
1006.6 983.8 +24.0
15 18.11 СЗ 3 50 км 9/9 450 м
[Cu Sc]
+27.0 +24.7 87 +38 +40 очень
душно
1007.1 984.4
18 18.11 С 4 8000 м осадки на расстоянии 8/5 500 м
[Cb cap Ac lent]
+30.3 +25.4 75 +44 +47 опасность
перегрева
1003.5 981.4
21 18.11 СЗ 3 20 км 5/3 600 м
[Cu med, cong Ac trans]
+30.5 +25.2 73 +44 +46 опасность
перегрева
1000.8 978.6 +31.0
12 19.11 нст 1 3000 м гроза, ливневой дождь 10/9 150 м
[Cb cap As op]
+22.5 +22.5 100 +30 +31 очень
душно
1007.2 984.8 +22.5 11
15 19.11 ЮВ 4 3000 м слабый дождь 10/9 150 м
[Frnb As op]
+21.8 +21.8 100 +28 +29 душно 1010.2 987.7
18 19.11 Ю 3 5000 м слабый дождь 10/9 180 м
[Frnb As op]
+22.3 +22.3 100 +30 +30 очень
душно
1008.6 986.4 34
21 19.11 Ю 4 20 км 10/8 240 м
[Frnb As op]
+22.7 +20.9 90 +30 +30 очень
душно
1006.4 983.9 +24.7

 

Местоположение метеостанции San Borja (Боливия): широта -14.86 долгота -66.86 высота над уровнем моря 194 м.

В архиве по умолчанию представлена погода в San Borja за последнюю неделю. Архивные данные за месяц целиком и за предыдущие месяцы, начиная с января 2011 года, Вы можете получить, выбрав интересующий диапазон дат из раскрывающегося списка и нажав кнопку "Ввод!".

Внимание! Время в таблицах - всемирное. Для получения местного времени необходимо прибавить поправку, которая в San Borja равна -4 ч.

Смотрите также архив погоды в соседних городах и на ближайших метеорологических станциях:

Погода в Santa Rosa (Боливия) (77 км)
Погода в Reyes (Боливия) (83 км)
Погода в Rurrenabaque (Боливия) (87 км)
Погода в San Ignacio De Moxo (Боливия) (136 км)
Погода в Santa Ana (Боливия) (197 км)
Погода в Baures (Боливия) (197 км)
Погода в Trinidad (Боливия) (210 км)
Погода в Ovejuyo (Боливия) (224 км)
Погода в La Paz (Боливия) (232 км)
Погода в San Ramon (Боливия) (291 км)

Пояснения к столбцам:

Ветер - указаны скорость ветра в м/с - средняя за 10 мин, порывы в срок и между сроками (в фигурных скобках) и направление, откуда дует ветер: С - северный, СВ - северо-восточный, В - восточный, ЮВ - юго-восточный, Ю - южный, ЮЗ - юго-западный, З - западный, СЗ - северо-западный.
Видимость - горизонтальная дальность видимости в метрах или километрах. При видимости от 1 до 10 км при отсутствии осадков обычно наблюдается дымка, при ухудшении видимости до 1 км и менее - туман. В сухую погоду видимость может ухудшаться дымом, пылью или мглою.
Явления - указаны атмосферные явления, наблюдавшиеся в срок или в последний час перед сроком; фигурными скобками обозначены явления, наблюдавшиеся между сроками (за 1-3 часа до срока); квадратными скобками обозначены град или гололедные отложения с указанием их диаметра в мм.
Облачность - указаны через наклонную черту общая и нижняя облачность в баллах и высота нижней границы облаков в метрах; квадратными скобками обозначены формы облаков: Ci - перистые, Cs - перисто-слоистые, Cc - перисто-кучевые, Ac - высококучевые, As - высокослоистые, Sc - слоисто-кучевые, Ns - слоисто-дождевые, Cu - кучевые, Cb - кучево-дождевые. Подробнее классификацию облаков см. в Атласе облаков (PDF).
T - Температура воздуха - температура, измеренная на высоте 2 м над землей.
Td - Температура точки росы - температура, при понижении до которой содержащийся в воздухе водяной пар достигнет насыщения.
f - Относительная влажность воздуха - влажноcть воздуха, измеренная на высоте 2 м над землей.
Te - Эффективная температура - температура, которую ощущает одетый по сезону человек в тени. Характеристика душности погоды. При расчете учитывается влияние влажности воздуха и скорости ветра на теплоощущения человека.
Tes - Эффективная температура на солнце - температура, которую ощущает человек, с поправкой на солнечный нагрев. Характеристика знойности погоды. Зависит от высоты солнца над горизонтом, облачности и скорости ветра. Ночью, в пасмурную погоду, а также при ветре 12 м/с и более поправка равна нулю.
P - Атмосферное давление - приведенное к уровню моря атмосферное давление.
Po - Атмосферное давление - измеренное на уровне метеостанции атмосферное давление.
Tmin - Минимальная температура - минимум температуры воздуха на высоте 2 м над землей.
Tmax - Максимальная температура - максимум температуры воздуха на высоте 2 м над землей.
R - Количество осадков - Количество выпавших осадков за период времени, мм. При наведении курсора мыши на число - период времени, за который выпало указанное количество осадков.
R24 - Количество осадков - Количество выпавших осадков за 24 часа, мм.
S - Снежный покров - Высота снежного покрова, см. При наведении курсора мыши на число - состояние снежного покрова и степень покрытия местности в баллах.